Tyler, TX

4:47 AM CST on February 24, 2018 (GMT -0600)
Tyler Pounds

Weather History for KTYR - January, 2013

Change the Weather History Date:

Saturday, January 26, 2013

  Actual Average Record
Temperature  
Mean Temperature 50 °F 47 °F  
Max Temperature 51 °F 57 °F 77 °F (1971)
Min Temperature 49 °F 37 °F 12 °F (1904)
Degree Days  
Heating Degree Days 15 18  
Month to date heating degree days 439 491  
Since 1 July heating degree days 1175 1392  
Cooling Degree Days 0 0  
Month to date cooling degree days 0 0  
Year to date cooling degree days 0 0  
Moisture  
Dew Point 48 °F    
Average Humidity 92    
Maximum Humidity 100    
Minimum Humidity 83    
Precipitation  
Precipitation 0.03 in 0.11 in 1.43 in (1949)
Month to date precipitation 3.18 2.56  
Year to date precipitation 3.18 2.56  
Snow  
Snow 0.00 in - - ()
Month to date snowfall T  
Since 1 July snowfall 1.0  
Snow Depth 0.00 in    
Sea Level Pressure  
Sea Level Pressure 30.18 in    
Wind  
Wind Speed 6 mph (ENE)    
Max Wind Speed 12 mph    
Max Gust Speed 14 mph    
Visibility 2 miles    
Events Fog , Rain    
T = Trace of Precipitation, MM = Missing Value Source: NWS Daily Summary

Daily Weather History Graph

Daily Weather History Graph

Search for Another Location

Airport or City:

Trip Planner

Search our weather history database for the weather conditions in past years. The results will help you decide how hot, cold, wet, or windy it might be!

Date:

Astronomy

Jan. 26, 2013 Rise Set
Actual Time 7:19 AM CST 5:49 PM CST
Civil Twilight 6:53 AM CST 6:15 PM CST
Nautical Twilight 6:23 AM CST 6:45 PM CST
Astronomical Twilight 5:54 AM CST 7:14 PM CST
Moon 5:42 PM CST (1/26) 6:39 AM CST (1/26)
Length of Visible Light 11h 22m
Length of Day
10h 30m
Full, 100% of the Moon is Illuminated
Jan 26
Full
Jan 26
Full
Feb 3
Last Quarter
Feb 10
New
Feb 17
First Quarter

Hourly Weather History & Observations

Time (CST) Temp. Dew Point Humidity Pressure Visibility Wind Dir Wind Speed Gust Speed Precip Events Conditions
12:53 AM 51.1 °F 46.9 °F 86% 30.18 in 9.0 mi East 6.9 mph - N/A   Overcast
1:53 AM 51.1 °F 46.9 °F 86% 30.18 in 9.0 mi ENE 5.8 mph - N/A   Overcast
2:53 AM 50.0 °F 46.9 °F 89% 30.16 in 8.0 mi East 6.9 mph - N/A   Overcast
3:53 AM 50.0 °F 46.9 °F 89% 30.17 in 3.0 mi NE 4.6 mph - N/A   Overcast
4:10 AM 48.2 °F 46.4 °F 93% 30.16 in 2.5 mi ENE 6.9 mph - N/A   Overcast
4:19 AM 48.2 °F 46.4 °F 93% 30.16 in 2.0 mi ENE 5.8 mph - N/A   Overcast
4:26 AM 48.2 °F 46.4 °F 93% 30.17 in 1.8 mi NE 4.6 mph - N/A   Overcast
4:53 AM 48.9 °F 46.9 °F 93% 30.17 in 2.0 mi NE 3.5 mph - N/A   Overcast
5:46 AM 48.2 °F 46.4 °F 93% 30.15 in 3.0 mi East 9.2 mph - N/A   Overcast
5:53 AM 48.9 °F 46.9 °F 93% 30.14 in 3.0 mi East 8.1 mph - N/A   Overcast
6:11 AM 48.2 °F 46.4 °F 93% 30.15 in 2.5 mi East 3.5 mph - N/A   Overcast
6:22 AM 48.2 °F 46.4 °F 93% 30.16 in 3.0 mi East 5.8 mph - N/A   Overcast
6:50 AM 48.2 °F 46.4 °F 93% 30.18 in 2.5 mi North 5.8 mph - N/A   Overcast
6:53 AM 48.9 °F 46.9 °F 93% 30.18 in 2.5 mi NNE 6.9 mph - N/A   Overcast
7:10 AM 48.2 °F 46.4 °F 93% 30.18 in 1.8 mi NE 6.9 mph - N/A   Overcast
7:19 AM 48.2 °F 46.4 °F 93% 30.19 in 2.0 mi NE 4.6 mph - 0.00 in Rain Light Rain
7:30 AM 48.2 °F 46.4 °F 93% 30.19 in 1.2 mi East 5.8 mph - 0.01 in Rain Light Rain
7:53 AM 48.9 °F 46.9 °F 93% 30.19 in 2.0 mi ENE 4.6 mph - 0.01 in   Overcast
8:40 AM 48.2 °F 46.4 °F 93% 30.20 in 1.8 mi ENE 5.8 mph - N/A   Overcast
8:48 AM 48.2 °F 48.2 °F 100% 30.20 in 2.5 mi ENE 4.6 mph - N/A   Overcast
8:53 AM 48.9 °F 48.0 °F 97% 30.20 in 2.5 mi NE 4.6 mph - N/A   Overcast
9:00 AM 48.2 °F 46.4 °F 93% 30.20 in 3.0 mi NE 5.8 mph - N/A   Overcast
9:15 AM 48.2 °F 48.2 °F 100% 30.21 in 2.5 mi NE 4.6 mph - 0.01 in Rain Light Rain
9:48 AM 48.2 °F 48.2 °F 100% 30.22 in 1.8 mi NE 5.8 mph - 0.01 in Rain Light Rain
9:53 AM 48.9 °F 48.9 °F 100% 30.22 in 2.0 mi NE 5.8 mph - 0.01 in   Overcast
10:08 AM 48.2 °F 48.2 °F 100% 30.23 in 3.0 mi ENE 6.9 mph - N/A   Overcast
10:53 AM 48.9 °F 48.9 °F 100% 30.23 in 2.0 mi NE 6.9 mph - 0.00 in Rain Light Rain
11:16 AM 48.2 °F 48.2 °F 100% 30.23 in 3.0 mi ENE 5.8 mph - 0.01 in   Overcast
11:25 AM 48.2 °F 48.2 °F 100% 30.23 in 2.5 mi NE 6.9 mph - 0.01 in   Overcast
11:49 AM 48.2 °F 48.2 °F 100% 30.22 in 1.8 mi NE 8.1 mph - 0.01 in   Overcast
11:53 AM 48.9 °F 48.9 °F 100% 30.21 in 1.8 mi ENE 6.9 mph - 0.01 in   Overcast
12:01 PM 48.2 °F 48.2 °F 100% 30.21 in 2.0 mi ENE 6.9 mph - N/A   Overcast
12:15 PM 48.2 °F 48.2 °F 100% 30.21 in 1.8 mi ENE 6.9 mph - N/A   Overcast
12:33 PM 50.0 °F 48.2 °F 94% 30.20 in 2.0 mi ENE 5.8 mph - 0.00 in   Overcast
12:53 PM 50.0 °F 48.9 °F 96% 30.19 in 2.0 mi NE 5.8 mph - 0.00 in   Overcast
1:31 PM 50.0 °F 48.2 °F 94% 30.17 in 1.8 mi ENE 5.8 mph - N/A   Overcast
1:40 PM 50.0 °F 48.2 °F 94% 30.17 in 2.0 mi ENE 6.9 mph - N/A   Overcast
1:53 PM 50.0 °F 48.9 °F 96% 30.17 in 2.5 mi NE 4.6 mph - N/A   Overcast
2:16 PM 50.0 °F 48.2 °F 94% 30.16 in 1.8 mi ENE 5.8 mph - N/A   Overcast
2:24 PM 50.0 °F 48.2 °F 94% 30.17 in 2.0 mi East 6.9 mph - N/A   Overcast
2:53 PM 50.0 °F 48.9 °F 96% 30.16 in 2.0 mi East 5.8 mph - N/A   Overcast
3:53 PM 50.0 °F 48.9 °F 96% 30.16 in 2.0 mi East 5.8 mph - N/A   Overcast
4:13 PM 50.0 °F 48.2 °F 94% 30.17 in 3.0 mi ENE 5.8 mph - N/A   Overcast
4:53 PM 50.0 °F 48.9 °F 96% 30.16 in 3.0 mi ENE 5.8 mph - N/A   Overcast
5:01 PM 50.0 °F 48.2 °F 94% 30.16 in 2.5 mi ENE 5.8 mph - N/A   Overcast
5:42 PM 50.0 °F 48.2 °F 94% 30.16 in 1.8 mi ENE 6.9 mph - N/A   Overcast
5:53 PM 48.9 °F 48.9 °F 100% 30.16 in 2.0 mi ENE 5.8 mph - N/A   Overcast
6:21 PM 48.2 °F 48.2 °F 100% 30.16 in 1.5 mi NE 6.9 mph - N/A   Overcast
6:51 PM 48.2 °F 48.2 °F 100% 30.17 in 1.0 mi ENE 6.9 mph - N/A   Mist
6:53 PM 48.9 °F 48.0 °F 97% 30.17 in 1.0 mi ENE 5.8 mph - N/A   Mist
7:53 PM 48.9 °F 48.0 °F 97% 30.17 in 1.0 mi East 5.8 mph - N/A   Mist
8:03 PM 48.2 °F 48.2 °F 100% 30.17 in 0.8 mi East 5.8 mph - N/A   Mist
8:53 PM 48.9 °F 48.0 °F 97% 30.17 in 0.8 mi East 4.6 mph - N/A   Mist
9:53 PM 48.9 °F 48.0 °F 97% 30.17 in 0.5 mi East 4.6 mph - N/A Fog Fog
10:53 PM 48.9 °F 48.9 °F 100% 30.17 in 0.5 mi ESE 6.9 mph - N/A Fog Fog
11:53 PM 50.0 °F 48.9 °F 96% 30.15 in 0.5 mi ESE 8.1 mph - N/A Fog Fog